[[{"header":{"parameterUnit":"m.s-1","parameterCategory":1,"la1":30.2991,"la2":30.254,"lo1":-89.0895,"lo2":-89.0444,"dy":0.0017,"dx":0.0017,"nx":28,"ny":28,"refTime":"2024-10-17T21:00:00:Z","depth":0,"parameterNumber":2,"parameterNumberName":"U-component_of_WINDS"},"data":[0,0,0,0,0,0,0,0,0,0,0,0,0,0,0,0,0,0,0,0,0,0,0,0,0,0,0,0,0,0,0,0,0,0,0,0,0,0,0,0,0,0,0,0,0,0,0,0,0,0,0,0,0,0,0,0,0,0,-4.4714,-4.4714,0,-4.4718,-4.4718,-4.4718,-4.4568,-4.4564,-4.456,-4.4556,-4.4559,-4.4563,-4.4567,0,0,0,0,0,0,0,0,0,0,0,0,0,-4.4577,-4.458,-4.4714,-4.4714,-4.4714,-4.4718,-4.4718,-4.4718,-4.4569,-4.4564,-4.4559,-4.4554,-4.4558,-4.4562,-4.4567,0,0,0,0,0,0,0,0,0,0,0,0,0,-4.4614,-4.4581,-4.4714,-4.464,-4.4634,-4.4718,-4.4718,-4.4718,-4.457,-4.4564,-4.4558,-4.4552,-4.4556,-4.4562,-4.4568,-4.4722,0,0,-4.4585,-4.4587,0,0,0,0,0,0,0,0,-4.4612,-4.4619,-4.4651,-4.4646,-4.4638,-4.4636,-4.467,-4.4719,-4.4571,-4.4594,-4.4556,-4.4549,-4.459,-4.4592,-4.4606,-4.4722,-4.4722,-4.4585,-4.4589,-4.4591,-4.4593,0,0,0,0,0,0,0,-4.461,-4.4618,-4.4715,-4.4652,-4.4644,-4.4606,-4.4605,-4.4679,-4.4625,-4.4592,-4.4581,-4.4583,-4.4585,-4.4601,-4.4605,-4.4722,-4.4585,-4.459,-4.4594,-4.4596,-4.4964,-4.497,0,0,0,0,0,0,-4.4617,-4.4617,-4.4715,-4.4715,-4.461,-4.4614,-4.4612,-4.4643,-4.4624,-4.4615,-4.4588,-4.4576,-4.4594,-4.4598,-4.4604,-4.4783,-4.4591,-4.4597,-4.46,-4.4958,-4.4966,-4.4973,0,0,0,0,0,0,-4.4615,-4.4628,-4.4715,-4.4663,-4.4672,-4.4622,-4.4658,-4.4646,-4.4662,-4.4622,-4.4611,-4.4615,-4.459,-4.4596,-4.4694,-4.4781,-4.4599,-4.4604,-4.4951,-4.496,-4.4969,-4.5143,0,0,0,0,0,0,-4.4612,-4.4628,-4.4686,-4.4666,-4.4675,-4.4806,-4.4664,-4.4651,-4.4672,-4.4656,-4.4643,-4.4635,-4.4585,-4.4686,-4.4699,-4.4786,-4.4609,-4.4942,-4.4955,-4.4966,-4.5129,-4.5157,-4.5181,0,0,0,0,0,-4.4607,-4.4735,-4.469,-4.4703,-4.4747,-4.4811,-4.4816,-4.4756,-4.468,-4.4738,-4.4712,-4.4636,-4.477,-4.4697,-4.4711,-4.48,-4.4937,-4.4951,-4.4965,-4.5117,-4.5152,-4.5181,0,0,0,0,0,0,-4.4767,-4.4731,-4.4681,-4.4806,-4.4813,-4.4785,-4.4857,-4.4794,-4.4823,-4.4807,-4.4731,-4.4729,-4.4838,-4.4829,-4.4749,-4.4948,-4.484,-4.4857,-4.4951,-4.4983,-4.5008,-4.5008,-4.4613,0,0,0,0,0,-4.4817,-4.4872,-4.4837,-4.4951,-4.4957,-4.4907,-4.4932,-4.4885,-4.4889,-4.4891,-4.4872,-4.4879,-4.4921,-4.4952,-4.4989,-4.5127,-4.5122,-4.5195,-4.5221,-4.5243,-4.5259,-4.5331,-4.5363,-4.502,-4.502,-4.5019,0,0,-4.492,-4.4907,-4.4946,-4.4983,-4.4982,-4.504,-4.491,-4.4977,-4.5019,-4.4901,-4.4991,-4.4978,-4.498,-4.5098,-4.5149,-4.5094,-4.5353,-4.5261,-4.5279,-4.5283,-4.5349,-4.5381,-4.541,-4.503,-4.5028,-4.5026,0,0,-4.5138,-4.5134,-4.5228,-4.523,-4.5231,-4.5197,-4.522,-4.5203,-4.5189,-4.5279,-4.5191,-4.524,-4.5316,-4.5321,-4.5333,-4.5553,-4.5484,-4.5567,-4.5703,-4.5774,-4.5801,-4.5825,-4.5902,-4.5931,-4.5584,-4.5584,-4.5584,0,-4.5266,-4.535,-4.5284,-4.5357,-4.5375,-4.5271,-4.5365,-4.537,-4.5384,-4.5399,-4.5336,-4.5429,-4.5423,-4.5541,-4.5594,-4.5608,-4.5631,-4.5568,-4.5803,-4.5825,-4.5846,-4.592,-4.5949,-4.5594,-4.5593,-4.5592,-4.5591,0,-4.5507,-4.5567,-4.5642,-4.5658,-4.5685,-4.5768,-4.5714,-4.5749,-4.57,-4.5672,-4.5765,-4.5754,-4.5787,-4.5812,-4.5765,-4.5923,-4.5888,-4.5816,-4.5705,-4.589,-4.5958,-4.5985,-4.5609,-4.5605,-4.5602,-4.56,0,0,-4.5825,-4.5803,-4.5832,-4.5838,-4.5831,-4.5876,-4.5954,-4.5987,-4.6018,-4.6031,-4.6094,-4.6161,-4.6094,-4.6108,-4.606,-4.6123,-4.6296,-4.6042,-4.6041,-4.6089,-4.6469,-4.6524,-4.6557,-4.6251,-4.6256,-4.626,-4.6469,0,-4.6036,-4.6168,-4.6111,-4.6249,-4.6303,-4.6205,-4.6273,-4.6276,-4.6253,-4.6294,-4.6268,-4.6316,-4.6224,-4.6232,-4.6289,-4.6263,-4.6372,-4.6247,-4.6308,-4.6311,-4.631,-4.6592,-4.665,-4.6848,-4.6495,-4.6499,-4.6502,0,-4.6299,-4.6323,-4.6467,-4.645,-4.6471,-4.6533,-4.6558,-4.6599,-4.6601,-4.6579,-4.6596,-4.6534,-4.6608,-4.6499,-4.6601,-4.6518,-4.6539,-4.653,-4.6536,-4.6539,-4.6418,-4.6603,-4.691,-4.694,-4.6543,-4.654,-4.6537,0,-4.6517,-4.6584,-4.6679,-4.6687,-4.667,-4.6716,-4.6711,-4.6706,-4.6729,-4.6751,-4.6765,-4.6796,-4.6813,-4.6838,-4.6786,-4.6711,-4.6895,-4.6781,-4.6878,-4.688,-4.6921,-4.6919,-4.7236,-4.6937,-4.6936,-4.6936,-4.6935,0,-4.6757,-4.6849,-4.6776,-4.6834,-4.6934,-4.6866,-4.6967,-4.6951,-4.6948,-4.7001,-4.6918,-4.6969,-4.6897,-4.6942,-4.6902,-4.6992,-4.7,-4.6984,-4.6972,-4.6992,-4.6994,-4.7004,-4.6989,-4.6943,-4.6942,-4.694,-4.6939,0,-4.7017,-4.6971,-4.7068,-4.7044,-4.704,-4.7114,-4.7093,-4.7146,-4.7116,-4.7184,-4.7196,-4.715,-4.7198,-4.7149,-4.7193,-4.7166,-4.7287,-4.7256,-4.7287,-4.7278,-4.7378,-4.737,-4.7712,-4.7754,-4.7429,-4.7432,-4.7435,0,-4.7173,-4.7241,-4.7224,-4.7254,-4.7254,-4.7303,-4.7326,-4.7262,-4.729,-4.7296,-4.7348,-4.7389,-4.7418,-4.7499,-4.747,-4.7503,-4.7471,-4.7589,-4.7476,-4.7493,-4.7473,-4.7469,-4.7475,-4.7612,-4.7616,-4.7619,-4.7622,0,-4.7456,-4.743,-4.7466,-4.7496,-4.7526,-4.7545,-4.7559,-4.7588,-4.7522,-4.7557,-4.7605,-4.7628,-4.7673,-4.7714,-4.7739,-4.7733,-4.7668,-4.7658,-4.7682,-4.7702,-4.7718,-4.771,-4.735,-4.765,-4.7647,-4.7645,-4.7644,-4.7643,-4.7667,-4.7723,-4.772,-4.7763,-4.7767,-4.7781,-4.7829,-4.7806,-4.7845,-4.7876,-4.7836,-4.7896,-4.7895,-4.7921,-4.7923,-4.7968,-4.7918,-4.7954,-4.7962,-4.7972,-4.7987,-4.7711,-4.7972,-4.7972,-4.7971,-4.797,-4.7969,0,-4.7945,-4.7938,-4.7979,-4.8,-4.8034,-4.7969,-4.798,-4.8013,-4.8066,-4.8071,-4.8101,-4.8156,-4.8196,-4.817,-4.8203,-4.8245,-4.8215,-4.8256,-4.8252,-4.8251,-4.803,-4.8005,-4.8279,-4.8279,-4.8279,-4.8279,-4.8279,-4.8279,-4.8093,-4.8184,-4.8158,-4.8249,-4.8241,-4.8298,-4.8311,-4.8323,-4.8326,-4.8392,-4.8424,-4.8407,-4.8399,-4.8431,-4.8465,-4.8456,-4.8472,-4.8524,-4.8504,-4.8297,-4.8267,-4.8238,-4.8214,-4.8528,-4.8528,-4.8721,-4.8723,-4.8725]},{"header":{"parameterUnit":"m.s-1","parameterCategory":1,"la1":30.2991,"la2":30.254,"lo1":-89.0895,"lo2":-89.0444,"dy":0.0017,"dx":0.0017,"nx":28,"ny":28,"refTime":"2024-10-17T21:00:00:Z","depth":0,"parameterNumber":3,"parameterNumberName":"V-component_of_WINDS"},"data":[0,0,0,0,0,0,0,0,0,0,0,0,0,0,0,0,0,0,0,0,0,0,0,0,0,0,0,0,0,0,0,0,0,0,0,0,0,0,0,0,0,0,0,0,0,0,0,0,0,0,0,0,0,0,0,0,0,0,-1.4621,-1.4621,0,-1.4708,-1.4709,-1.471,-1.4728,-1.4728,-1.4727,-1.4726,-1.4814,-1.4817,-1.482,0,0,0,0,0,0,0,0,0,0,0,0,0,-1.4466,-1.4469,-1.462,-1.4622,-1.4623,-1.4708,-1.4709,-1.471,-1.4728,-1.4728,-1.4727,-1.4726,-1.4813,-1.4817,-1.482,0,0,0,0,0,0,0,0,0,0,0,0,0,-1.4541,-1.447,-1.462,-1.4642,-1.4645,-1.4708,-1.4709,-1.471,-1.4728,-1.4727,-1.4727,-1.4726,-1.4812,-1.4816,-1.4821,-1.4867,0,0,-1.4834,-1.4836,0,0,0,0,0,0,0,0,-1.4537,-1.4547,-1.4638,-1.4641,-1.4644,-1.4706,-1.4687,-1.4763,-1.4729,-1.4697,-1.4726,-1.4725,-1.4779,-1.4786,-1.4804,-1.4871,-1.4875,-1.4834,-1.4837,-1.4839,-1.484,0,0,0,0,0,0,0,-1.4532,-1.4543,-1.4655,-1.4639,-1.4643,-1.4646,-1.4656,-1.4701,-1.4742,-1.4699,-1.4701,-1.4711,-1.478,-1.48,-1.4807,-1.4876,-1.4834,-1.4838,-1.4841,-1.4843,-1.4984,-1.4985,0,0,0,0,0,0,-1.4523,-1.4539,-1.4652,-1.4658,-1.4587,-1.465,-1.4661,-1.4687,-1.4742,-1.4749,-1.4712,-1.4712,-1.4793,-1.4801,-1.481,-1.4867,-1.4839,-1.4843,-1.4846,-1.4983,-1.4985,-1.4986,0,0,0,0,0,0,-1.452,-1.4533,-1.4649,-1.4599,-1.4614,-1.4654,-1.4683,-1.4689,-1.4709,-1.4751,-1.4758,-1.4725,-1.4793,-1.4804,-1.4853,-1.4871,-1.4845,-1.4849,-1.4982,-1.4984,-1.4985,-1.4983,0,0,0,0,0,0,-1.4515,-1.4532,-1.4551,-1.4599,-1.4616,-1.4691,-1.4684,-1.4692,-1.4717,-1.4718,-1.4765,-1.4772,-1.4793,-1.4846,-1.4857,-1.4876,-1.4853,-1.4981,-1.4983,-1.4985,-1.4982,-1.4984,-1.4987,0,0,0,0,0,-1.451,-1.4547,-1.4552,-1.4565,-1.4641,-1.4692,-1.4702,-1.4725,-1.4718,-1.4737,-1.4764,-1.4771,-1.4867,-1.4851,-1.4863,-1.4884,-1.498,-1.4982,-1.4985,-1.498,-1.4984,-1.4987,0,0,0,0,0,0,-1.4499,-1.4553,-1.456,-1.4613,-1.4648,-1.4695,-1.472,-1.4728,-1.4765,-1.4764,-1.4791,-1.4802,-1.4849,-1.4871,-1.4853,-1.4931,-1.4923,-1.4928,-1.4915,-1.4919,-1.4921,-1.4915,-1.4856,0,0,0,0,0,-1.4503,-1.4541,-1.4586,-1.4629,-1.4646,-1.468,-1.4703,-1.4718,-1.4755,-1.4769,-1.4799,-1.4834,-1.4872,-1.4897,-1.4934,-1.4985,-1.4995,-1.5005,-1.5007,-1.5009,-1.5013,-1.5041,-1.5046,-1.4994,-1.4994,-1.4994,0,0,-1.4512,-1.4546,-1.4568,-1.4628,-1.4656,-1.4694,-1.4692,-1.4732,-1.476,-1.4775,-1.4823,-1.4846,-1.4887,-1.4937,-1.496,-1.4957,-1.503,-1.5012,-1.5014,-1.5017,-1.5044,-1.5049,-1.5053,-1.4996,-1.4996,-1.4995,0,0,-1.4546,-1.4577,-1.4615,-1.4644,-1.4687,-1.4709,-1.4718,-1.4764,-1.478,-1.4829,-1.484,-1.4873,-1.4938,-1.4966,-1.4989,-1.5032,-1.5039,-1.5044,-1.5057,-1.5083,-1.5087,-1.5091,-1.5106,-1.5111,-1.5047,-1.5047,-1.5047,0,-1.4552,-1.461,-1.4634,-1.4673,-1.4698,-1.4714,-1.4752,-1.4779,-1.4832,-1.4848,-1.4844,-1.4925,-1.4953,-1.5009,-1.502,-1.5038,-1.5048,-1.5039,-1.5085,-1.5089,-1.5092,-1.5107,-1.5112,-1.5048,-1.5048,-1.5048,-1.5048,0,-1.4613,-1.4653,-1.4679,-1.4729,-1.4757,-1.4796,-1.4825,-1.485,-1.4862,-1.4884,-1.4933,-1.4967,-1.5011,-1.5025,-1.5038,-1.5083,-1.5079,-1.5079,-1.5071,-1.5097,-1.5111,-1.5117,-1.5048,-1.5048,-1.5048,-1.5048,0,0,-1.4645,-1.4708,-1.4717,-1.474,-1.4788,-1.4818,-1.4857,-1.49,-1.4921,-1.4956,-1.4988,-1.5042,-1.5042,-1.5068,-1.5083,-1.5106,-1.5137,-1.5103,-1.5105,-1.5108,-1.5188,-1.5187,-1.5193,-1.5142,-1.5143,-1.5144,-1.5184,0,-1.4685,-1.4756,-1.4778,-1.4836,-1.4872,-1.4887,-1.492,-1.4952,-1.4973,-1.5006,-1.5029,-1.5067,-1.5064,-1.508,-1.5103,-1.5128,-1.5153,-1.5126,-1.5171,-1.5173,-1.5161,-1.5201,-1.5201,-1.5237,-1.519,-1.5191,-1.5191,0,-1.4742,-1.4779,-1.484,-1.4883,-1.4899,-1.4928,-1.4969,-1.5,-1.5037,-1.505,-1.5078,-1.5091,-1.5131,-1.512,-1.5174,-1.5155,-1.5174,-1.5189,-1.5191,-1.5196,-1.5184,-1.5207,-1.5249,-1.5255,-1.52,-1.52,-1.5199,0,-1.4759,-1.4823,-1.4868,-1.4887,-1.4937,-1.4958,-1.4979,-1.5015,-1.5039,-1.5074,-1.509,-1.5129,-1.515,-1.5179,-1.5202,-1.5192,-1.5254,-1.5245,-1.5265,-1.5265,-1.5278,-1.5277,-1.5324,-1.5291,-1.5291,-1.5291,-1.5291,0,-1.4801,-1.4838,-1.4876,-1.4904,-1.4945,-1.4969,-1.5009,-1.5032,-1.5063,-1.5094,-1.5108,-1.5137,-1.5166,-1.5198,-1.5216,-1.5257,-1.5267,-1.5278,-1.5283,-1.5277,-1.5276,-1.5291,-1.5289,-1.5292,-1.5292,-1.5292,-1.5291,0,-1.4827,-1.4854,-1.4903,-1.4947,-1.4958,-1.4987,-1.5023,-1.505,-1.5071,-1.511,-1.5121,-1.5154,-1.5193,-1.5218,-1.5267,-1.5279,-1.5324,-1.5328,-1.5312,-1.5314,-1.5333,-1.5331,-1.5392,-1.54,-1.5361,-1.5362,-1.5362,0,-1.4853,-1.4881,-1.4927,-1.495,-1.4972,-1.5007,-1.5032,-1.5056,-1.5081,-1.5123,-1.5144,-1.5184,-1.5217,-1.5278,-1.5306,-1.5343,-1.5348,-1.5366,-1.5354,-1.5347,-1.5347,-1.5345,-1.5348,-1.5368,-1.5369,-1.5369,-1.5369,0,-1.4895,-1.4906,-1.4941,-1.498,-1.5009,-1.5041,-1.5073,-1.509,-1.512,-1.5146,-1.5186,-1.5212,-1.5262,-1.53,-1.534,-1.5362,-1.537,-1.5373,-1.538,-1.5374,-1.5364,-1.5369,-1.5318,-1.5372,-1.5371,-1.5371,-1.5371,-1.5371,-1.4921,-1.4947,-1.4983,-1.5021,-1.5047,-1.5076,-1.5103,-1.5127,-1.5161,-1.5204,-1.5216,-1.5257,-1.5291,-1.5345,-1.5367,-1.5399,-1.5397,-1.5407,-1.5409,-1.5411,-1.5411,-1.5358,-1.5406,-1.5406,-1.5406,-1.5406,-1.5406,0,-1.4964,-1.4987,-1.5022,-1.5066,-1.5095,-1.5101,-1.5136,-1.516,-1.5196,-1.5227,-1.5259,-1.5304,-1.5341,-1.5371,-1.541,-1.5429,-1.5434,-1.5438,-1.5437,-1.5442,-1.5411,-1.5401,-1.5434,-1.5434,-1.5434,-1.5434,-1.5434,-1.5434,-1.4989,-1.5033,-1.5048,-1.5104,-1.5127,-1.5168,-1.5188,-1.5214,-1.5239,-1.5288,-1.5319,-1.5339,-1.5369,-1.5409,-1.5443,-1.5451,-1.5464,-1.5468,-1.5476,-1.5447,-1.5444,-1.5441,-1.5432,-1.5471,-1.5471,-1.5504,-1.5505,-1.5505]}]]